www.pogodaiklimat.ru

Погода и климат >> Архив погоды >> Венгрия >> Веспрем


ПОГОДА в Веспреме

  • Прогноз погоды в Веспреме
  • Монитор погоды в Веспреме

АРХИВ ПОГОДЫ в Веспреме

Время (UTC), дата Ветер
(напр.,м/с)
 
Видим.   Явления Облачность Т
(С)
Тd
(С)
f
(%)
Тe
(С)
Тes
(С)
Комфортность P
(гПа)
Po
(гПа)
Тmin
(С)
Tmax
(С)
R
(мм)
R24
(мм)
S
(см)
19 14.03 Ю 4 н/о н/о +5.2 -1.9 60 +2 +2 1007.6 973.4
20 14.03 Ю 4 н/о н/о +5.8 -2.1 57 +2 +2 1006.9 972.8
21 14.03 Ю 4 н/о н/о +6.0 -1.9 57 +3 +3 1006.2 972.1
22 14.03 Ю 4 н/о н/о +5.1 -2.5 58 +2 +2 1005.6 971.4
23 14.03 Ю 3 н/о н/о +4.6 -2.0 62 +1 +1 1005.0 970.8
00 15.03 ЮЗ 5
{8}
н/о н/о +6.3 -2.1 55 +3 +3 1004.8 970.8
01 15.03 З 2
{7}
н/о н/о +5.8 -1.6 59 +4 +4 1005.2 971.1
02 15.03 ЮЗ 2 н/о н/о +5.4 -1.3 62 +3 +3 1005.2 971.1
03 15.03 З 3 н/о н/о +4.9 -1.3 64 +2 +2 1005.6 971.4
04 15.03 СЗ 2 н/о н/о +3.9 -1.5 68 +1 +1 1005.9 971.6
05 15.03 СЗ 5
{8}
н/о н/о +5.8 -0.9 62 +2 +2 1006.8 972.7
06 15.03 СЗ 6
{9}
н/о н/о +6.7 +0.6 65 +2 +2 1007.5 973.5 +3.6
07 15.03 СЗ 9
{13}
н/о н/о +8.2 +0.9 60 +4 +4 1008.4 974.5
08 15.03 СЗ 11
{17}
н/о н/о +9.4 +0.8 55 +5 +5 1008.9 975.1
09 15.03 СЗ 10
{17}
н/о н/о +10.5 +0.5 50 +7 +7 1009.6 975.9
10 15.03 СЗ 8
{15}
н/о н/о +10.2 0.0 49 +7 +7 1009.9 976.2
11 15.03 СЗ 8
{13}
н/о н/о +10.8 -1.9 41 +8 +8 1009.3 975.7
12 15.03 СЗ 7
{12}
н/о н/о +10.7 -2.3 40 +8 +8 1009.1 975.5
13 15.03 СЗ 8
{12}
н/о н/о +11.4 -2.1 39 +8 +8 1009.3 975.7
14 15.03 СЗ 6
{10}
н/о н/о +11.0 -1.7 41 +8 +8 1009.4 975.8
15 15.03 З 5
{9}
н/о н/о +10.3 -1.1 45 +8 +8 1009.8 976.1
16 15.03 З 5
{10}
н/о н/о +8.2 +1.4 62 +5 +5 1010.7 976.7
17 15.03 З 3 н/о н/о +7.4 +1.7 67 +5 +5 1010.6 976.5
18 15.03 З 2 н/о н/о +6.9 +2.2 72 +5 +5 1010.1 976.0 +11.8
19 15.03 З 3 н/о н/о +7.0 +2.5 73 +4 +4 1009.9 975.8
20 15.03 З 3 н/о н/о +6.7 +3.5 80 +4 +4 1009.9 975.8
21 15.03 ЮЗ 5
{7}
н/о н/о +6.8 +4.1 83 +3 +3 1009.4 975.3
22 15.03 ЮЗ 6
{8}
н/о н/о +7.0 +3.6 79 +3 +3 1009.4 975.3
23 15.03 ЮЗ 5
{10}
н/о н/о +7.4 +2.5 71 +4 +4 1008.6 974.6
00 16.03 ЮЗ 6
{9}
н/о н/о +8.5 +1.6 62 +5 +5 1008.1 974.2 0.7
01 16.03 ЮЗ 4
{7}
н/о н/о +7.1 +1.2 66 +4 +4 1007.3 973.3
02 16.03 З 4
{8}
н/о н/о +8.3 +1.5 62 +5 +5 1006.9 973.1
03 16.03 ЮЗ 5
{9}
н/о н/о +9.3 +2.2 61 +6 +6 1006.4 972.7
04 16.03 З 4
{7}
н/о н/о +9.1 +2.7 64 +6 +6 1007.4 973.6
05 16.03 С 5
{11}
н/о н/о +7.8 +3.8 76 +4 +4 1010.3 976.3
06 16.03 С 4
{9}
н/о н/о +6.5 +4.2 85 +3 +3 1012.1 977.9 +6.5 0.7
07 16.03 С 3 н/о н/о +6.1 +5.1 93 +3 +3 1013.1 978.8
08 16.03 С 4 н/о н/о +6.4 +4.9 90 +3 +3 1013.6 979.3
09 16.03 С 5
{10}
н/о н/о +7.0 +4.5 84 +3 +3 1014.2 980.0
10 16.03 С 7
{12}
н/о н/о +7.3 +4.3 81 +3 +3 1014.4 980.2
11 16.03 С 8
{12}
н/о н/о +7.9 +3.6 74 +3 +3 1014.6 980.5
12 16.03 С 6
{12}
н/о н/о +9.5 +3.0 64 +6 +6 1014.3 980.4 0.7
13 16.03 СЗ 4
{7}
н/о н/о +9.8 +4.0 67 +7 +7 1014.1 980.2
14 16.03 СЗ 4
{7}
н/о н/о +9.5 +4.3 70 +7 +7 1013.8 979.9
15 16.03 З 3 н/о н/о +9.3 +4.3 71 +7 +7 1013.7 979.8
16 16.03 ЮЗ 1 н/о н/о +9.3 +4.7 73 +9 +9 1014.1 980.1
17 16.03 Ю 3 н/о н/о +8.7 +4.5 75 +6 +6 1014.2 980.2
18 16.03 ЮЗ 2 н/о н/о +8.1 +4.3 77 +6 +6 1014.3 980.2 +10.2 0.7
19 16.03 ЮЗ 1 н/о н/о +8.2 +4.4 77 +8 +8 1014.4 980.3
20 16.03 штиль 0 н/о н/о +7.2 +4.0 80 +6 +6 1014.4 980.2
21 16.03 штиль 0 н/о н/о +6.6 +3.4 80 +6 +6 1014.5 980.2
22 16.03 ЮЗ 4 н/о н/о +7.5 +4.5 81 +4 +4 1014.3 980.1
23 16.03 ЮЗ 3 н/о н/о +7.6 +4.2 79 +5 +5 1014.0 979.8
00 17.03 ЮЗ 1 н/о н/о +7.2 +3.6 78 +6 +6 1013.5 979.3
01 17.03 штиль 0 н/о н/о +5.0 +2.5 84 +4 +4 1013.2 978.8
02 17.03 штиль 0 н/о н/о +3.9 +2.4 90 +3 +3 1013.0 978.4
03 17.03 ЮЗ 1 н/о н/о +5.7 +3.9 88 +4 +4 1012.3 978.0
04 17.03 СЗ 1 н/о н/о +3.8 +2.5 91 +2 +2 1012.4 977.8
05 17.03 З 3 н/о н/о +5.8 +4.0 88 +2 +2 1012.1 977.8
06 17.03 С 1 н/о н/о +6.3 +4.8 90 +5 +5 1012.3 978.0 +2.4
07 17.03 З 2 н/о н/о +10.2 +6.7 79 +9 +9 1012.0 978.2
08 17.03 З 2 н/о н/о +12.6 +7.7 72 +12 +12 1011.9 978.4
09 17.03 ЮЗ 4 н/о н/о +14.4 +7.5 63 +13 +13 1011.6 978.3
10 17.03 ЮЗ 5
{9}
н/о н/о +16.4 +7.9 57 +16 +16 1010.7 977.7
11 17.03 ЮЗ 7
{10}
н/о н/о +18.0 +8.0 52 +17 +17 1010.2 977.4
12 17.03 Ю 8
{11}
н/о н/о +18.6 +8.0 50 +18 +18 1009.4 976.7
13 17.03 ЮЗ 8
{13}
н/о н/о +19.1 +8.1 49 +19 +19 1008.6 975.9
14 17.03 ЮЗ 9
{13}
н/о н/о +19.3 +6.8 44 +19 +19 1007.8 975.2
15 17.03 ЮЗ 9
{15}
н/о н/о +19.0 +6.5 44 +19 +19 1007.1 974.5
16 17.03 ЮЗ 7
{13}
н/о н/о +18.2 +5.8 44 +18 +18 1006.8 974.1
17 17.03 Ю 7
{10}
н/о н/о +16.7 +5.0 46 +16 +16 1006.5 973.6
18 17.03 ЮЗ 7
{10}
н/о н/о +15.4 +5.6 52 +14 +14 1006.7 973.7 +19.7
19 17.03 ЮЗ 8
{13}
н/о н/о +14.4 +5.5 55 +12 +12 1006.8 973.7
20 17.03 ЮЗ 5
{12}
н/о н/о +13.0 +4.7 57 +11 +11 1006.9 973.6
21 17.03 ЮЗ 10
{16}
н/о н/о +13.2 +4.6 56 +10 +10 1006.7 973.4
22 17.03 ЮЗ 7
{13}
н/о н/о +12.1 +5.5 64 +9 +9 1007.1 973.7
23 17.03 ЮЗ 7
{12}
н/о н/о +12.0 +5.4 64 +9 +9 1007.5 974.1
00 18.03 З 6
{9}
н/о н/о +11.3 +5.6 68 +8 +8 1008.7 975.2
01 18.03 СЗ 9
{15}
н/о н/о +9.8 +3.5 65 +6 +6 1010.6 976.8
02 18.03 С 6
{16}
н/о н/о +8.0 +2.7 69 +4 +4 1011.9 977.9
03 18.03 С 9
{15}
н/о н/о +7.5 +2.0 68 +3 +3 1012.0 977.9
04 18.03 С 10
{18}
н/о н/о +7.2 +1.3 66 +2 +2 1012.6 978.4
05 18.03 С 7
{16}
н/о н/о +6.7 +1.6 70 +2 +2 1013.1 978.9
06 18.03 СЗ 8
{14}
н/о н/о +6.8 +1.1 67 +2 +2 1015.2 980.9 +6.7
07 18.03 СЗ 7
{14}
н/о н/о +6.4 +1.5 71 +2 +2 1015.9 981.5
08 18.03 С 6
{13}
н/о н/о +6.7 +0.8 66 +2 +2 1015.7 981.4
09 18.03 С 7
{13}
н/о н/о +6.8 +0.5 64 +2 +2 1016.4 982.1
10 18.03 С 6
{14}
н/о н/о +6.7 +0.6 65 +2 +2 1016.9 982.5
11 18.03 СЗ 7
{11}
н/о н/о +6.6 +0.9 67 +2 +2 1017.5 983.1
12 18.03 СЗ 6
{10}
н/о н/о +6.9 -0.8 58 +3 +3 1017.4 983.0
13 18.03 СЗ 5
{10}
н/о н/о +7.0 -1.4 55 +3 +3 1017.3 983.0
14 18.03 СЗ 5
{9}
н/о н/о +6.7 -0.5 60 +3 +3 1017.5 983.1
15 18.03 СЗ 5
{10}
н/о н/о +6.3 -0.9 60 +2 +2 1017.8 983.4
16 18.03 СЗ 4
{7}
н/о н/о +6.6 -1.1 58 +3 +3 1018.4 984.0
17 18.03 С 3
{7}
н/о н/о +6.5 -1.2 58 +4 +4 1019.2 984.7
18 18.03 СЗ 2 н/о н/о +5.3 -1.0 64 +3 +3 1020.2 985.6 +7.0
19 18.03 СЗ 3 н/о н/о +5.7 -1.0 62 +3 +3 1020.6 986.0
20 18.03 СЗ 3 н/о н/о +5.7 -1.2 61 +3 +3 1021.2 986.6
21 18.03 СЗ 4 н/о н/о +5.5 -1.0 63 +2 +2 1021.8 987.1
22 18.03 СЗ 5
{8}
н/о н/о +5.3 -1.0 64 +1 +1 1021.9 987.2
23 18.03 С 5
{8}
н/о н/о +5.1 -1.4 63 +1 +1 1022.0 987.3
00 19.03 С 3
{10}
н/о н/о +5.1 -1.4 63 +2 +2 1022.2 987.5
01 19.03 С 4 н/о н/о +4.9 -1.3 64 +1 +1 1022.5 987.7
02 19.03 С 3
{7}
н/о н/о +4.9 -1.3 64 +2 +2 1022.5 987.7
03 19.03 С 3 н/о н/о +4.8 -1.4 64 +2 +2 1023.0 988.2
04 19.03 С 3
{7}
н/о н/о +4.5 -1.7 64 +1 +1 1023.2 988.4
05 19.03 С 3 н/о н/о +4.5 -1.5 65 +1 +1 1023.2 988.4
06 19.03 С 4
{7}
н/о н/о +4.6 -1.4 65 +1 +1 1023.9 989.0 +4.3
07 19.03 С 4
{9}
н/о н/о +5.0 -1.2 64 +1 +1 1024.4 989.6
08 19.03 С 4
{8}
н/о н/о +5.1 -1.1 64 +1 +1 1024.8 990.0
09 19.03 С 4
{7}
н/о н/о +5.9 -1.5 59 +2 +2 1025.0 990.3
10 19.03 С 5
{9}
н/о н/о +6.9 -1.5 55 +3 +3 1025.1 990.5
11 19.03 С 5
{10}
н/о н/о +8.1 -2.2 48 +5 +5 1025.3 990.8
12 19.03
{10}
н/о н/о +8.4 -3.8 42 1024.9 990.5
13 19.03
{9}
н/о н/о +8.5 -4.7 39 1024.9 990.5
14 19.03 С 5
{11}
н/о н/о +8.9 -4.6 38 +6 +6 1024.9 990.5
15 19.03 С 4
{9}
н/о н/о +8.3 -3.2 44 +6 +6 1025.1 990.7
16 19.03 С 4
{8}
н/о н/о +7.6 -5.1 40 +5 +5 1025.9 991.3
17 19.03 С 2
{8}
н/о н/о +6.3 -4.5 46 +5 +5 1026.7 992.0
18 19.03 С 1 н/о н/о +4.7 -4.3 52 +4 +4 1027.7 992.7 +9.7
19 19.03 С 2 н/о н/о +4.0 -4.5 54 +2 +2 1028.4 993.3
20 19.03 С 2 н/о н/о +3.3 -4.9 55 +1 +1 1028.7 993.5
21 19.03 С 2 н/о н/о +3.3 -5.4 53 +1 +1 1029.0 993.8
22 19.03 С 3 н/о н/о +3.0 -5.2 55 -0 -0 1029.3 994.1
23 19.03 С 2 н/о н/о +2.4 -5.0 58 -0 -0 1029.8 994.5
00 20.03 С 3 н/о н/о +2.7 -5.2 56 -1 -1 1030.2 994.9
01 20.03 СЗ 4 н/о н/о +2.0 -4.9 60 -2 -2 1030.5 995.1
02 20.03 С 4 н/о н/о +2.5 -4.7 59 -2 -2 1030.4 995.1
03 20.03 С 3
{7}
н/о н/о +2.1 -4.4 62 -2 -2 1030.8 995.4
04 20.03 С 2 н/о н/о +0.9 -4.5 67 -2 -2 1031.4 995.8
05 20.03 С 3 н/о н/о +0.8 -4.4 68 -3 -3 1031.8 996.2
06 20.03 С 2 н/о н/о +2.0 -3.7 66 -1 -1 1032.6 997.1 +0.7
07 20.03 С 3 н/о н/о +4.6 -2.9 58 +2 +2 1033.0 997.8
08 20.03 С 4 н/о н/о +6.7 -3.3 49 +4 +4 1033.3 998.4
09 20.03 СВ 3
{7}
н/о н/о +8.3 -4.8 39 +6 +6 1033.4 998.7
10 20.03 С 5
{8}
н/о н/о +8.4 -6.9 33 +6 +6 1033.5 998.8
11 20.03 С 3
{8}
н/о н/о +9.6 -5.9 33 +8 +8 1033.4 998.8
12 20.03
{8}
н/о н/о +9.5 -6.0 33 1033.1 998.5
13 20.03 С 4
{8}
н/о н/о +9.8 -6.5 31 +8 +8 1032.9 998.4
14 20.03 С 5
{9}
н/о н/о +9.4 -6.9 31 +7 +7 1033.0 998.4
15 20.03
{11}
н/о н/о +9.2 -5.1 36 1033.2 998.6
16 20.03 С 3
{8}
н/о н/о +8.2 -6.3 35 +6 +6 1033.6 998.9
17 20.03 С 2
{7}
н/о н/о +6.0 -6.6 40 +4 +4 1034.3 999.3
18 20.03 СЗ 2 н/о н/о +4.1 -5.6 49 +2 +2 1035.1 999.8 +10.4
19 20.03 СЗ 2 н/о н/о +3.0 -5.6 53 +1 +1 1035.8 1000.3
20 20.03 СЗ 3 н/о н/о +2.4 -5.7 55 -1 -1 1036.2 1000.6
21 20.03 СЗ 3 н/о н/о +2.9 -5.0 56 -1 -1 1036.4 1000.9
22 20.03 СЗ 2 н/о н/о +1.9 -5.7 57 -1 -1 1036.6 1001.0
23 20.03 СЗ 2 н/о н/о +1.5 -5.4 60 -1 -1 1036.7 1001.0
00 21.03 СЗ 2 н/о н/о +1.8 -5.6 58 -1 -1 1036.7 1001.1
01 21.03 СЗ 2 н/о н/о +2.2 -5.2 58 -1 -1 1036.6 1001.0
02 21.03 СЗ 2 н/о н/о +0.7 -6.0 61 -2 -2 1036.5 1000.7
03 21.03 СЗ 1 н/о н/о +0.7 -5.7 62 -1 -1 1036.4 1000.6
04 21.03 С 1 н/о н/о +0.4 -5.6 64 -1 -1 1036.6 1000.8
05 21.03 СЗ 1 н/о н/о -1.1 -5.1 74 -3 -3 1036.9 1000.9
06 21.03 штиль 0 н/о н/о +1.5 -4.2 66 +1 +1 1037.3 1001.6 -2.7
07 21.03 н/о н/о +5.7 -3.6 51 1037.2 1002.0
08 21.03 З 1 н/о н/о +8.2 -4.3 41 +8 +8 1036.9 1002.0
09 21.03 ЮЗ 1 н/о н/о +9.5 -4.8 36 +10 +10 1036.7 1002.0
10 21.03 ЮВ 2
{10}
н/о н/о +11.1 -4.6 33 +10 +10 1036.4 1001.9
11 21.03 Ю 2 н/о н/о +11.0 -5.1 32 +10 +10 1036.2 1001.7
12 21.03 Ю 2 н/о н/о +10.9 -5.6 31 +10 +10 1035.3 1000.8
13 21.03 ЮЗ 2 н/о н/о +12.0 -5.0 30 +12 +12 1034.4 1000.1
14 21.03 Ю 1 н/о н/о +11.6 -4.9 31 +12 +12 1033.9 999.6
15 21.03 Ю 2 н/о н/о +11.8 -5.2 30 +11 +11 1033.5 999.2
17 21.03 ЮЗ 2 н/о н/о +8.3 -4.8 39 +7 +7 1033.7 999.0

 

Местоположение метеостанции Веспрем (Венгрия): широта 47.07 долгота 17.83 высота над уровнем моря 281 м.

В архиве по умолчанию представлена погода в Веспреме за последнюю неделю. Архивные данные за месяц целиком и за предыдущие месяцы, начиная с января 2011 года, Вы можете получить, выбрав интересующий диапазон дат из раскрывающегося списка и нажав кнопку "Ввод!".


*Определитесь, кто Вы:
робот инопланетянин человек

Внимание! Время в таблицах - всемирное. Для получения местного времени необходимо прибавить поправку, которая равна 1 ч.

Смотрите также архив погоды в соседних городах и на ближайших метеорологических станциях:

Погода в Шиофоке (Венгрия) (24 км)
Погода на Базе ВВС Папа (Венгрия) (41 км)
Погода в Агарде (Венгрия) (61 км)
Погода в Пер аэропорту (Венгрия) (61 км)
Погода в Шармеллеке (Венгрия) (66 км)
Погода в Дьере (Венгрия) (73 км)
Погода в Тате (Венгрия) (74 км)
Погода в Капошваре (Венгрия) (77 км)
Погода в Залаэгерсеге (Венгрия) (81 км)
Погода в Гурбаново (Словакия) (93 км)

Пояснения к столбцам:

Ветер - указаны скорость ветра в м/с - средняя за 10 мин, порывы в срок и между сроками (в фигурных скобках) и направление, откуда дует ветер: С - северный, СВ - северо-восточный, В - восточный, ЮВ - юго-восточный, Ю - южный, ЮЗ - юго-западный, З - западный, СЗ - северо-западный.
Видимость - горизонтальная дальность видимости в метрах или километрах. При видимости от 1 до 10 км при отсутствии осадков обычно наблюдается дымка, при ухудшении видимости до 1 км и менее - туман. В сухую погоду видимость может ухудшаться дымом, пылью или мглою.
Явления - указаны атмосферные явления, наблюдавшиеся в срок или в последний час перед сроком; фигурными скобками обозначены явления, наблюдавшиеся между сроками (за 1-3 часа до срока); квадратными скобками обозначены град или гололедные отложения с указанием их диаметра в мм.
Облачность - указаны через наклонную черту общая и нижняя облачность в баллах и высота нижней границы облаков в метрах; квадратными скобками обозначены формы облаков: Ci - перистые, Cs - перисто-слоистые, Cc - перисто-кучевые, Ac - высококучевые, As - высокослоистые, Sc - слоисто-кучевые, Ns - слоисто-дождевые, Cu - кучевые, Cb - кучево-дождевые. Подробнее классификацию облаков см. в Атласе облаков (PDF).
T - Температура воздуха - температура, измеренная на высоте 2 м над землей.
Td - Температура точки росы - температура, при понижении до которой содержащийся в воздухе водяной пар достигнет насыщения.
f - Относительная влажность воздуха - влажноcть воздуха, измеренная на высоте 2 м над землей.
Te - Эффективная температура - температура, которую ощущает одетый по сезону человек в тени. Характеристика душности погоды. При расчете учитывается влияние влажности воздуха и скорости ветра на теплоощущения человека.
Tes - Эффективная температура на солнце - температура, которую ощущает человек, с поправкой на солнечный нагрев. Характеристика знойности погоды. Зависит от высоты солнца над горизонтом, облачности и скорости ветра. Ночью, в пасмурную погоду, а также при ветре 12 м/с и более поправка равна нулю.
P - Атмосферное давление - приведенное к уровню моря атмосферное давление.
Po - Атмосферное давление - измеренное на уровне метеостанции атмосферное давление.
Tmin - Минимальная температура - минимум температуры воздуха на высоте 2 м над землей.
Tmax - Максимальная температура - максимум температуры воздуха на высоте 2 м над землей.
R - Количество осадков - Количество выпавших осадков за период времени, мм. При наведении курсора мыши на число - период времени, за который выпало указанное количество осадков.
R24 - Количество осадков - Количество выпавших осадков за 24 часа, мм.
S - Снежный покров - Высота снежного покрова, см. При наведении курсора мыши на число - состояние снежного покрова и степень покрытия местности в баллах.